H1 CPF 2 NER 2025 8 1 9 213 01 glonass137 H2 1705501 9137 42939 2025 8 1 0 0 0 2025 8 4 23 45 0 900 1 1 0 0 0 1 H9 10 0 60888 0.00000 0 -12705387.436 -6220406.653 -21213001.880 10 0 60888 900.00000 0 -13577065.381 -8599090.644 -19798231.632 10 0 60888 1800.00000 0 -14539054.280 -10726876.352 -17998581.422 10 0 60888 2700.00000 0 -15541189.062 -12562986.021 -15849136.749 10 0 60888 3600.00000 0 -16528097.747 -14078023.417 -13391761.932 10 0 60888 4500.00000 0 -17441599.954 -15254940.938 -10674279.072 10 0 60888 5400.00000 0 -18223239.806 -16089494.339 -7749532.586 10 0 60888 6300.00000 0 -18816846.240 -16590168.011 -4674357.864 10 0 60888 7200.00000 0 -19171012.725 -16777575.960 -1508474.461 10 0 60888 8100.00000 0 -19241391.910 -16683365.592 1686674.343 10 0 60888 9000.00000 0 -18992708.641 -16348672.100 4849112.913 10 0 60888 9900.00000 0 -18400406.796 -15822189.913 7917532.252 10 0 60888 10800.00000 0 -17451860.826 -15157943.441 10832473.503 10 0 60888 11700.00000 0 -16147101.194 -14412851.638 13537473.280 10 0 60888 12600.00000 0 -14499023.244 -13644189.133 15980149.136 10 0 60888 13500.00000 0 -12533070.483 -12907050.619 18113204.895 10 0 60888 14400.00000 0 -10286404.962 -12251924.723 19895337.292 10 0 60888 15300.00000 0 -7806598.554 -11722478.674 21292027.340 10 0 60888 16200.00000 0 -5149898.470 -11353646.147 22276202.111 10 0 60888 17100.00000 0 -2379137.722 -11170097.898 22828755.002 10 0 60888 18000.00000 0 438624.299 -11185158.984 22938915.028 10 0 60888 18900.00000 0 3234634.970 -11400217.850 22604458.331 10 0 60888 19800.00000 0 5941052.032 -11804652.340 21831757.744 10 0 60888 20700.00000 0 8493511.248 -12376276.367 20635668.966 10 0 60888 21600.00000 0 10833553.024 -13082289.440 19039254.730 10 0 60888 22500.00000 0 12910808.341 -13880690.352 17073351.169 10 0 60888 23400.00000 0 14684853.852 -14722096.834 14775983.453 10 0 60888 24300.00000 0 16126659.305 -15551895.778 12191640.711 10 0 60888 25200.00000 0 17219567.021 -16312634.386 9370422.984 10 0 60888 26100.00000 0 17959762.367 -16946551.934 6367075.813 10 0 60888 27000.00000 0 18356215.318 -17398145.368 3239930.522 10 0 60888 27900.00000 0 18430095.373 -17616659.954 49770.486 10 0 60888 28800.00000 0 18213684.367 -17558398.746 -3141354.351 10 0 60888 29700.00000 0 17748833.135 -17188751.963 -6271341.127 10 0 60888 30600.00000 0 17085027.507 -16483858.845 -9279251.421 10 0 60888 31500.00000 0 16277145.989 -15431830.031 -12106507.507 10 0 60888 32400.00000 0 15383004.693 -14033477.072 -14698043.100 10 0 60888 33300.00000 0 14460794.331 -12302516.681 -17003385.117 10 0 60888 34200.00000 0 13566518.594 -10265239.712 -18977644.402 10 0 60888 35100.00000 0 12751543.147 -7959657.661 -20582395.505 10 0 60888 36000.00000 0 12060359.519 -5434161.654 -21786427.942 10 0 60888 36900.00000 0 11528658.826 -2745749.589 -22566354.221 10 0 60888 37800.00000 0 11181796.817 42104.775 -22907062.927 10 0 60888 38700.00000 0 11033714.883 2861852.023 -22802008.421 10 0 60888 39600.00000 0 11086362.117 5644436.572 -22253331.968 10 0 60888 40500.00000 0 11329642.188 8321928.621 -21271812.506 10 0 60888 41400.00000 0 11741886.428 10830109.290 -19876648.567 10 0 60888 42300.00000 0 12290832.360 13110901.808 -18095076.126 10 0 60888 43200.00000 0 12935065.450 15114548.270 -15961830.308 10 0 60888 44100.00000 0 13625862.467 16801442.339 -13518461.870 10 0 60888 45000.00000 0 14309357.904 18143542.711 -10812522.167 10 0 60888 45900.00000 0 14928941.426 19125309.908 -7896632.861 10 0 60888 46800.00000 0 15427784.679 19744128.973 -4827458.810 10 0 60888 47700.00000 0 15751390.489 20010202.201 -1664604.490 10 0 60888 48600.00000 0 15850056.714 19945918.266 1530544.300 10 0 60888 49500.00000 0 15681150.769 19584725.965 4696010.762 10 0 60888 50400.00000 0 15211098.974 18969561.376 7770426.211 10 0 60888 51300.00000 0 14417007.018 18150895.776 10694214.798 10 0 60888 52200.00000 0 13287843.386 17184487.155 13410741.182 10 0 60888 53100.00000 0 11825135.958 16128930.270 15867399.391 10 0 60888 54000.00000 0 10043152.279 15043108.152 18016622.515 10 0 60888 54900.00000 0 7968555.380 13983651.729 19816794.586 10 0 60888 55800.00000 0 5639548.713 13002513.533 21233047.960 10 0 60888 56700.00000 0 3104544.663 12144756.421 22237931.758 10 0 60888 57600.00000 0 420410.589 11446649.149 22811939.320 10 0 60888 58500.00000 0 -2349636.351 10934147.829 22943885.090 10 0 60888 59400.00000 0 -5138400.035 10621826.341 22631123.976 10 0 60888 60300.00000 0 -7877245.377 10512300.234 21879608.910 10 0 60888 61200.00000 0 -10498703.851 10596168.392 20703785.026 10 0 60888 62100.00000 0 -12939037.994 10852475.317 19126321.699 10 0 60888 63000.00000 0 -15140659.657 11249675.358 17177686.503 10 0 60888 63900.00000 0 -17054302.304 11747059.239 14895568.062 10 0 60888 64800.00000 0 -18640857.421 12296583.805 12324157.598 10 0 60888 65700.00000 0 -19872798.565 12845028.686 9513301.856 10 0 60888 66600.00000 0 -20735133.365 13336389.467 6517542.811 10 0 60888 67500.00000 0 -21225843.257 13714406.445 3395062.121 10 0 60888 68400.00000 0 -21355792.136 13925121.805 206550.518 10 0 60888 69300.00000 0 -21148107.395 13919356.270 -2985975.707 10 0 60888 70200.00000 0 -20637059.257 13654999.269 -6120387.575 10 0 60888 71100.00000 0 -19866485.741 13099014.159 -9135661.210 10 0 60888 72000.00000 0 -18887830.037 12229071.951 -11973075.740 10 0 60888 72900.00000 0 -17757873.768 11034742.660 -14577366.855 10 0 60888 73800.00000 0 -16536262.628 9518192.174 -16897812.493 10 0 60888 74700.00000 0 -15282929.752 7694353.661 -18889228.526 10 0 60888 75600.00000 0 -14055526.421 5590564.891 -20512854.387 10 0 60888 76500.00000 0 -12906969.203 3245685.604 -21737111.016 10 0 60888 77400.00000 0 -11883207.424 708731.134 -22538216.182 10 0 60888 78300.00000 0 -11021305.237 -1962921.091 -22900645.392 10 0 60888 79200.00000 0 -10347918.861 -4705677.574 -22817429.708 10 0 60888 80100.00000 0 -9878232.637 -7452137.937 -22290285.197 10 0 60888 81000.00000 0 -9615397.841 -10133667.042 -21329571.998 10 0 60888 81900.00000 0 -9550496.851 -12683023.087 -19954084.400 10 0 60888 82800.00000 0 -9663032.960 -15036932.557 -18190676.533 10 0 60888 83700.00000 0 -9921923.918 -17138505.265 -16073731.474 10 0 60888 84600.00000 0 -10286956.085 -18939389.621 -13644484.521 10 0 60888 85500.00000 0 -10710636.668 -20401579.161 -10950214.231 10 0 60889 0.00000 0 -11140364.843 -21498796.093 -8043317.634 10 0 60889 900.00000 0 -11520829.492 -22217395.974 -4980286.339 10 0 60889 1800.00000 0 -11796531.073 -22556755.850 -1820607.785 10 0 60889 2700.00000 0 -11914321.490 -22529133.193 1374391.930 10 0 60889 3600.00000 0 -11825853.867 -22159001.626 4542737.092 10 0 60889 4500.00000 0 -11489838.988 -21481893.426 7623001.589 10 0 60889 5400.00000 0 -10874013.178 -20542798.516 10555494.865 10 0 60889 6300.00000 0 -9956734.740 -19394188.073 13283411.919 10 0 60889 7200.00000 0 -8728141.715 -18093746.229 15753925.514 10 0 60889 8100.00000 0 -7190822.098 -16701905.145 17919200.181 10 0 60889 9000.00000 0 -5359967.913 -15279286.548 19737309.285 10 0 60889 9900.00000 0 -3263005.953 -13884156.290 21173038.361 10 0 60889 10800.00000 0 -938719.452 -12569997.661 22198560.178 10 0 60889 11700.00000 0 1564104.116 -11383303.973 22793969.342 10 0 60889 12600.00000 0 4188444.521 -10361681.758 22947666.757 10 0 60889 13500.00000 0 6871167.800 -9532342.987 22656586.842 10 0 60889 14400.00000 0 9545406.759 -8911048.719 21926263.075 10 0 60889 15300.00000 0 12143105.987 -8501547.993 20770730.180 10 0 60889 16200.00000 0 14597627.411 -8295535.423 19212264.022 10 0 60889 17100.00000 0 16846309.536 -8273129.510 17280963.160 10 0 60889 18000.00000 0 18832874.924 -8403852.088 15014178.853 10 0 60889 18900.00000 0 20509586.231 -8648068.328 12455803.229 10 0 60889 19800.00000 0 21839061.032 -8958827.269 9655428.120 10 0 60889 20700.00000 0 22795669.396 -9284025.714 6667389.889 10 0 60889 21600.00000 0 23366455.221 -9568804.276 3549718.061 10 0 60889 22500.00000 0 23551542.132 -9758074.109 363007.874 10 0 60889 23400.00000 0 23364006.246 -9799066.748 -2830761.173 10 0 60889 24300.00000 0 22829220.718 -9643798.120 -5969437.311 10 0 60889 25200.00000 0 21983699.396 -9251340.967 -8991914.600 10 0 60889 26100.00000 0 20873488.367 -8589807.836 -11839332.367 10 0 60889 27000.00000 0 19552173.479 -7637958.913 -14456231.485 10 0 60889 27900.00000 0 18078588.435 -6386364.926 -16791643.911 10 0 60889 28800.00000 0 16514320.786 -4838074.262 -18800093.271 10 0 60889 29700.00000 0 14921121.655 -3008754.647 -20442486.331 10 0 60889 30600.00000 0 13358328.990 -926302.089 -21686877.557 10 0 60889 31500.00000 0 11880413.288 1370067.502 -22509091.735 10 0 60889 32400.00000 0 10534749.204 3831206.706 -22893192.629 10 0 60889 33300.00000 0 9359706.619 6399847.422 -22831788.939 10 0 60889 34200.00000 0 8383140.849 9012758.767 -22326172.010 10 0 60889 35100.00000 0 7621344.560 11603162.208 -21386283.218 10 0 60889 36000.00000 0 7078504.241 14103303.365 -20030512.184 10 0 60889 36900.00000 0 6746682.673 16447073.470 -18285330.328 10 0 60889 37800.00000 0 6606326.532 18572571.493 -16184767.369 10 0 60889 38700.00000 0 6627276.169 20424500.595 -13769741.405 10 0 60889 39600.00000 0 6770233.442 21956299.529 -11087256.054 10 0 60889 40500.00000 0 6988624.283 23131920.881 -8189480.649 10 0 60889 41400.00000 0 7230776.150 23927182.926 -5132731.741 10 0 60889 42300.00000 0 7442317.450 24330639.747 -1976376.097 10 0 60889 43200.00000 0 7568696.826 24343934.595 1218323.196 10 0 60889 44100.00000 0 7557715.382 23981623.053 4389394.899 10 0 60889 45000.00000 0 7361964.670 23270474.773 7475358.838 10 0 60889 45900.00000 0 6941067.377 22248284.217 10416413.007 10 0 60889 46800.00000 0 6263626.216 20962241.205 13155585.809 10 0 60889 47700.00000 0 5308798.895 19466930.133 15639831.559 10 0 60889 48600.00000 0 4067432.768 17822041.898 17821048.775 10 0 60889 49500.00000 0 2542711.180 16089894.112 19657002.402 10 0 60889 50400.00000 0 750283.791 14332862.788 21112133.088 10 0 60889 51300.00000 0 -1282125.558 12610831.981 22158238.836 10 0 60889 52200.00000 0 -3515618.347 10978766.847 22775016.757 10 0 60889 53100.00000 0 -5901492.388 9484510.266 22950455.046 10 0 60889 54000.00000 0 -8383029.075 8166893.889 22681068.016 10 0 60889 54900.00000 0 -10897624.557 7054241.444 21971969.602 10 0 60889 55800.00000 0 -13379178.147 6163326.084 20836783.507 10 0 60889 56700.00000 0 -15760640.513 5498824.882 19297390.949 10 0 60889 57600.00000 0 -17976617.251 5053293.116 17383519.814 10 0 60889 58500.00000 0 -19965920.567 4807659.552 15132181.857 10 0 60889 59400.00000 0 -21673963.484 4732222.175 12586967.559 10 0 60889 60300.00000 0 -23054896.908 4788102.871 9797210.970 10 0 60889 61200.00000 0 -24073399.999 4929100.078 6817039.741 10 0 60889 62100.00000 0 -24706048.385 5103861.336 3704328.044 10 0 60889 63000.00000 0 -24942202.063 5258283.791 519572.370 10 0 60889 63900.00000 0 -24784374.832 5338040.573 -2675287.806 10 0 60889 64800.00000 0 -24248068.950 5291125.195 -5818081.073 10 0 60889 65700.00000 0 -23361081.330 5070304.950 -8847622.470 10 0 60889 66600.00000 0 -22162310.149 4635377.859 -11704914.409 10 0 60889 67500.00000 0 -20700112.091 3955135.889 -14334305.627 10 0 60889 68400.00000 0 -19030279.651 3008949.585 -16684584.514 10 0 60889 69300.00000 0 -17213724.141 1787905.406 -18709984.527 10 0 60889 70200.00000 0 -15313962.496 295446.142 -20371081.424 10 0 60889 71100.00000 0 -13394514.171 -1452513.983 -21635564.395 10 0 60889 72000.00000 0 -11516317.966 -3428005.516 -22478865.921 10 0 60889 72900.00000 0 -9735277.523 -5591934.692 -22884638.219 10 0 60889 73800.00000 0 -8100038.379 -7895490.710 -22845067.306 10 0 60889 74700.00000 0 -6650089.379 -10281970.838 -22361019.050 10 0 60889 75600.00000 0 -5414267.248 -12688947.320 -21442014.887 10 0 60889 76500.00000 0 -4409725.786 -15050685.731 -20106038.264 10 0 60889 77400.00000 0 -3641411.494 -17300713.903 -18379176.088 10 0 60889 78300.00000 0 -3102065.857 -19374434.345 -16295102.706 10 0 60889 79200.00000 0 -2772752.363 -21211671.369 -13894416.860 10 0 60889 80100.00000 0 -2623884.195 -22759046.883 -11223844.988 10 0 60889 81000.00000 0 -2616707.537 -23972086.139 -8335326.738 10 0 60889 81900.00000 0 -2705176.349 -24816966.128 -5285000.856 10 0 60889 82800.00000 0 -2838138.125 -25271834.336 -2132111.522 10 0 60889 83700.00000 0 -2961737.261 -25327643.701 1062143.285 10 0 60889 84600.00000 0 -3021933.745 -24988469.903 4235798.833 10 0 60889 85500.00000 0 -2967030.252 -24271298.784 7327322.879 10 0 60890 0.00000 0 -2750100.734 -23205293.976 10276803.664 10 0 60890 900.00000 0 -2331217.754 -21830575.580 13027105.446 10 0 60890 1800.00000 0 -1679384.993 -20196563.138 15524965.700 10 0 60890 2700.00000 0 -774093.172 -18359950.541 17722018.722 10 0 60890 3600.00000 0 393565.986 -16382398.754 19575722.716 10 0 60890 4500.00000 0 1820274.972 -14328041.715 21050174.962 10 0 60890 5400.00000 0 3490381.781 -12260908.730 22116800.039 10 0 60890 6300.00000 0 5376312.917 -10242369.733 22754898.664 10 0 60890 7200.00000 0 7439492.240 -8328708.646 22952047.214 10 0 60890 8100.00000 0 9631729.071 -6568924.651 22704340.549 10 0 60890 9000.00000 0 11897019.611 -5002851.728 22016473.477 10 0 60890 9900.00000 0 14173688.624 -3659673.863 20901658.870 10 0 60890 10800.00000 0 16396784.085 -2556897.041 19381383.256 10 0 60890 11700.00000 0 18500626.773 -1699820.462 17485003.541 10 0 60890 12600.00000 0 20421409.807 -1081528.883 15249191.408 10 0 60890 13500.00000 0 22099740.580 -683406.376 12717234.794 10 0 60890 14400.00000 0 23483019.288 -476150.072 9938208.718 10 0 60890 15300.00000 0 24527554.410 -421241.355 6966030.485 10 0 60890 16200.00000 0 25200326.016 -472812.596 3858416.885 10 0 60890 17100.00000 0 25480322.050 -579830.403 675763.252 10 0 60890 18000.00000 0 25359390.404 -688502.701 -2520033.698 10 0 60890 18900.00000 0 24842569.907 -744806.950 -5666785.885 10 0 60890 19800.00000 0 23947885.299 -697031.380 -8703232.432 10 0 60890 20700.00000 0 22705614.097 -498220.163 -11570241.967 10 0 60890 21600.00000 0 21157055.753 -108417.409 -14211974.150 10 0 60890 22500.00000 0 19352854.749 503386.722 -16576976.718 10 0 60890 23400.00000 0 17350948.346 1357691.800 -18619195.685 10 0 60890 24300.00000 0 15214225.581 2463372.443 -20298878.294 10 0 60890 25200.00000 0 13007996.264 3817061.661 -21583350.718 10 0 60890 26100.00000 0 10797376.620 5403059.343 -22447655.133 10 0 60890 27000.00000 0 8644701.442 7193770.689 -22875033.895 10 0 60890 27900.00000 0 6607071.131 9150656.856 -22857251.702 10 0 60890 28800.00000 0 4734136.051 11225658.381 -22394749.912 10 0 60890 29700.00000 0 3066210.183 13363032.014 -21496630.571 10 0 60890 30600.00000 0 1632791.931 15501524.248 -20180471.027 10 0 60890 31500.00000 0 451552.585 17576790.617 -18471973.280 10 0 60890 32400.00000 0 -472166.956 19523959.675 -16404455.419 10 0 60890 33300.00000 0 -1145332.041 21280234.502 -14018195.469 10 0 60890 34200.00000 0 -1586665.777 22787423.066 -11359640.868 10 0 60890 35100.00000 0 -1825601.293 23994291.869 -8480499.344 10 0 60890 36000.00000 0 -1900780.797 24858644.778 -5436729.218 10 0 60890 36900.00000 0 -1858166.379 25349040.553 -2287449.164 10 0 60890 37800.00000 0 -1748843.703 25446077.852 906211.104 10 0 60890 38700.00000 0 -1626612.384 25143194.640 4082296.664 10 0 60890 39600.00000 0 -1545465.566 24446949.396 7179226.558 10 0 60890 40500.00000 0 -1557065.590 23376773.097 10136983.116 10 0 60890 41400.00000 0 -1708322.461 21964203.081 12898268.611 10 0 60890 42300.00000 0 -2039177.298 20251631.286 15409607.280 10 0 60890 43200.00000 0 -2580684.053 18290619.412 17622372.060 10 0 60890 44100.00000 0 -3353470.242 16139851.211 19493717.027 10 0 60890 45000.00000 0 -4366641.500 13862806.838 20987398.443 10 0 60890 45900.00000 0 -5617176.318 11525255.382 22074469.494 10 0 60890 46800.00000 0 -7089837.091 9192668.840 22733836.209 10 0 60890 47700.00000 0 -8757602.248 6927663.874 22952664.440 10 0 60890 48600.00000 0 -10582602.888 4787576.343 22726630.452 10 0 60890 49500.00000 0 -12517526.511 2822268.132 22060010.279 10 0 60890 50400.00000 0 -14507431.120 1072256.279 20965605.773 10 0 60890 51300.00000 0 -16491895.913 -432758.689 19464508.007 10 0 60890 52200.00000 0 -18407420.583 -1674904.672 17585701.578 10 0 60890 53100.00000 0 -20189974.483 -2648648.354 15365516.201 10 0 60890 54000.00000 0 -21777590.213 -3360782.915 12846934.885 10 0 60890 54900.00000 0 -23112893.692 -3829893.684 10078770.804 10 0 60890 55800.00000 0 -24145464.782 -4085324.142 7114727.783 10 0 60890 56700.00000 0 -24833929.017 -4165685.818 4012361.864 10 0 60890 57600.00000 0 -25147691.744 -4116975.043 831963.727 10 0 60890 58500.00000 0 -25068240.634 -3990376.473 -2364616.206 10 0 60890 59400.00000 0 -24589960.473 -3839846.923 -5515176.711 10 0 60890 60300.00000 0 -23720424.658 -3719582.726 -8558384.431 10 0 60890 61200.00000 0 -22480150.004 -3681479.112 -11434977.515 10 0 60890 62100.00000 0 -20901824.319 -3772690.628 -14088929.648 10 0 60890 63000.00000 0 -19029038.685 -4033397.483 -16468550.740 10 0 60890 63900.00000 0 -16914577.509 -4494873.878 -18527501.813 10 0 60890 64800.00000 0 -14618338.231 -5177941.520 -20225703.602 10 0 60890 65700.00000 0 -12204968.150 -6091874.942 -21530120.711 10 0 60890 66600.00000 0 -9741317.753 -7233805.937 -22415405.864 10 0 60890 67500.00000 0 -7293817.385 -8588653.062 -22864391.795 10 0 60890 68400.00000 0 -4925887.036 -10129579.805 -22868421.513 10 0 60890 69300.00000 0 -2695487.346 -11818962.568 -22427510.949 10 0 60890 70200.00000 0 -652913.579 -13609828.030 -21550341.362 10 0 60890 71100.00000 0 1161076.176 -15447699.684 -20254082.215 10 0 60890 72000.00000 0 2716721.642 -17272776.074 -18564048.505 10 0 60890 72900.00000 0 3996250.383 -19022349.399 -16513199.738 10 0 60890 73800.00000 0 4994357.693 -20633363.062 -14141490.742 10 0 60890 74700.00000 0 5718158.306 -22045000.953 -11495087.388 10 0 60890 75600.00000 0 6186614.131 -23201200.018 -8625462.881 10 0 60890 76500.00000 0 6429464.158 -24052980.958 -5588392.542 10 0 60890 77400.00000 0 6485703.550 -24560499.619 -2442867.016 10 0 60890 78300.00000 0 6401677.703 -24694733.464 750054.675 10 0 60890 79200.00000 0 6228873.053 -24438732.926 3928429.729 10 0 60890 80100.00000 0 6021498.892 -23788385.739 7030630.657 10 0 60890 81000.00000 0 5833962.909 -22752662.789 9996535.656 10 0 60890 81900.00000 0 5718347.347 -21353335.654 12768687.430 10 0 60890 82800.00000 0 5721992.262 -19624178.003 15293398.417 10 0 60890 83700.00000 0 5885287.661 -17609684.279 17521781.711 10 0 60890 84600.00000 0 6239767.266 -15363358.979 19410688.576 10 0 60890 85500.00000 0 6806583.959 -12945647.319 20923535.330 10 0 60891 0.00000 0 7595430.915 -10421592.826 22031004.535 10 0 60891 900.00000 0 8603954.483 -7858316.792 22711608.323 10 0 60891 1800.00000 0 9817682.992 -5322426.398 22952102.269 10 0 60891 2700.00000 0 11210476.892 -2877453.215 22747744.179 10 0 60891 3600.00000 0 12745481.814 -581430.320 22102391.263 10 0 60891 4500.00000 0 14376546.676 1515294.007 21028434.114 10 0 60891 5400.00000 0 16050049.255 3371916.097 19546567.950 10 0 60891 6300.00000 0 17707054.632 4958633.776 17685404.490 10 0 60891 7200.00000 0 19285717.739 6257640.215 15480930.738 10 0 60891 8100.00000 0 20723830.624 7263613.692 12975823.822 10 0 60891 9000.00000 0 21961408.474 7983682.920 10218633.895 10 0 60891 9900.00000 0 22943206.103 8436869.489 7262849.852 10 0 60891 10800.00000 0 23621058.968 8653030.846 4165865.257 10 0 60891 11700.00000 0 23955949.500 8671348.467 987864.126 10 0 60891 12600.00000 0 23919710.658 8538425.250 -2209351.679 10 0 60891 13500.00000 0 23496293.576 8306073.038 -5363570.246 10 0 60891 14400.00000 0 22682544.424 8028884.644 -8413388.321 10 0 60891 15300.00000 0 21488456.322 7761694.186 -11299416.192 10 0 60891 16200.00000 0 19936884.462 7557034.530 -13965444.156 10 0 60891 17100.00000 0 18062735.432 7462700.869 -16359546.794 10 0 60891 18000.00000 0 15911664.197 7519525.000 -18435102.506 10 0 60891 18900.00000 0 13538333.109 7759455.774 -20151707.747 10 0 60891 19800.00000 0 11004305.857 8204028.069 -21475967.643 10 0 60891 20700.00000 0 8375664.677 8863285.908 -22382147.393 10 0 60891 21600.00000 0 5720450.627 9735205.890 -22852671.850 10 0 60891 22500.00000 0 3106033.931 10805645.718 -22878463.836 10 0 60891 23400.00000 0 596524.122 12048820.252 -22459115.060 10 0 60891 24300.00000 0 -1749672.362 13428285.122 -21602886.828 10 0 60891 25200.00000 0 -3882045.938 14898386.498 -20326541.125 10 0 60891 26100.00000 0 -5759838.499 16406115.896 -18655005.883 10 0 60891 27000.00000 0 -7353482.899 17893291.933 -16620881.489 10 0 60891 27900.00000 0 -8645568.890 19298977.160 -14263798.560 10 0 60891 28800.00000 0 -9631297.055 20562028.310 -11629639.953 10 0 60891 29700.00000 0 -10318403.846 21623672.716 -8769642.502 10 0 60891 30600.00000 0 -10726563.055 22430002.680 -5739396.334 10 0 60891 31500.00000 0 -10886290.928 22934283.090 -2597761.580 10 0 60891 32400.00000 0 -10837402.935 23098975.524 594276.146 10 0 60891 33300.00000 0 -10627088.782 22897394.158 3774789.067 10 0 60891 34200.00000 0 -10307688.137 22314924.255 6882106.190 10 0 60891 35100.00000 0 -9934261.734 21349752.497 9856004.681 10 0 60891 36000.00000 0 -9562060.841 20013078.823 12638870.790 10 0 60891 36900.00000 0 -9244001.918 18328801.063 15176808.244 10 0 60891 37800.00000 0 -9028252.804 16332685.506 17420673.298 10 0 60891 38700.00000 0 -8956031.742 14071057.736 19327017.262 10 0 60891 39600.00000 0 -9059711.508 11599067.698 20858919.192 10 0 60891 40500.00000 0 -9361308.011 8978600.341 21986693.612 10 0 60891 41400.00000 0 -9871416.761 6275917.486 22688460.492 10 0 60891 42300.00000 0 -10588641.976 3559127.490 22950567.126 10 0 60891 43200.00000 0 -11499542.866 895586.174 22767854.203 10 0 60891 44100.00000 0 -12579100.214 -1650664.717 22143760.951 10 0 60891 45000.00000 0 -13791684.997 -4021316.707 21090267.018 10 0 60891 45900.00000 0 -15092489.924 -6165972.329 19627671.506 10 0 60891 46800.00000 0 -16429365.516 -8043991.958 17784212.408 10 0 60891 47700.00000 0 -17744985.244 -9625933.677 15595532.594 10 0 60891 48600.00000 0 -18979250.209 -10894526.617 13104001.363 10 0 60891 49500.00000 0 -20071833.335 -11845137.397 10357903.409 10 0 60891 50400.00000 0 -20964756.559 -12485710.176 7410509.870 10 0 60891 51300.00000 0 -21604892.562 -12836182.857 4319048.684 10 0 60891 52200.00000 0 -21946285.086 -12927404.004 1143593.829 10 0 60891 53100.00000 0 -21952189.019 -12799596.265 -2054104.924 10 0 60891 54000.00000 0 -21596742.845 -12500431.490 -5211828.586 10 0 60891 54900.00000 0 -20866201.341 -12082799.484 -8268107.644 10 0 60891 55800.00000 0 -19759674.903 -11602365.616 -11163428.112 10 0 60891 56700.00000 0 -18289342.800 -11115021.710 -13841400.368 10 0 60891 57600.00000 0 -16480130.027 -10674339.299 -16249866.913 10 0 60891 58500.00000 0 -14368860.320 -10329134.272 -18341926.467 10 0 60891 59400.00000 0 -12002920.176 -10121247.140 -20076853.709 10 0 60891 60300.00000 0 -9438489.458 -10083633.774 -21420896.259 10 0 60891 61200.00000 0 -6738412.538 -10238848.136 -22347933.153 10 0 60891 62100.00000 0 -3969798.911 -10597981.589 -22839982.067 10 0 60891 63000.00000 0 -1201453.504 -11160103.840 -22887545.701 10 0 60891 63900.00000 0 1498756.199 -11912229.122 -22489790.986 10 0 60891 64800.00000 0 4066486.680 -12829808.910 -21654558.189 10 0 60891 65700.00000 0 6443351.292 -13877730.093 -20398200.272 10 0 60891 66600.00000 0 8579098.919 -15011776.212 -18745256.182 10 0 60891 67500.00000 0 10433448.700 -16180489.824 -16727964.951 10 0 60891 68400.00000 0 11977505.706 -17327357.195 -14385630.506 10 0 60891 69300.00000 0 13194700.170 -18393222.990 -11763849.988 10 0 60891 70200.00000 0 14081212.908 -19318833.048 -8913621.003 10 0 60891 71100.00000 0 14645871.223 -20047397.995 -5890345.503 10 0 60891 72000.00000 0 14909521.720 -20527069.718 -2752750.070 10 0 60891 72900.00000 0 14903908.362 -20713226.467 438256.123 10 0 60891 73800.00000 0 14670104.753 -20570470.590 3620763.273 10 0 60891 74700.00000 0 14256568.113 -20074255.021 6733059.673 10 0 60891 75600.00000 0 13716898.027 -19212070.415 9714824.029 10 0 60891 76500.00000 0 13107395.100 -17984143.188 12508288.436 10 0 60891 77400.00000 0 12484522.683 -16403615.263 15059349.880 10 0 60891 78300.00000 0 11902378.513 -14496197.808 17318609.406 10 0 60891 79200.00000 0 11410282.331 -12299313.041 19242319.647 10 0 60891 80100.00000 0 11050580.454 -9860759.204 20793223.316 10 0 60891 81000.00000 0 10856758.978 -7236953.358 21941267.394 10 0 60891 81900.00000 0 10851944.387 -4490823.759 22664180.133 10 0 60891 82800.00000 0 11047854.201 -1689437.946 22947900.379 10 0 60891 83700.00000 0 11444241.725 1098536.706 22786851.378 10 0 60891 84600.00000 0 12028858.554 3805436.308 22184053.818 10 0 60891 85500.00000 0 12777937.156 6367161.264 21151075.648 99